[[{"header":{"parameterUnit":"m.s-1","parameterCategory":2,"la1":30.2991,"la2":30.254,"lo1":-89.0895,"lo2":-89.0444,"dy":0.0017,"dx":0.0017,"nx":28,"ny":28,"refTime":"2025-09-11T09:00:00:Z","depth":"0","parameterNumber":2,"parameterNumberName":"U-component_of_CURRENTS"},"data":[0,0,0,0,0,0,0,0,0,0,0,0,0,0,0,0,0,0,0,0,0,0,0,0,0,0,0,0,0,0,0,0,0,0,0,0,0,0,0,0,0,0,0,0,0,0,0,0,0,0,0,0,0,0,0,0,0,0,0.1605,0.1605,0,0.1599,0.1599,0.1599,0.1596,0.1596,0.1596,0.1596,0.1618,0.1618,0.1619,0,0,0,0,0,0,0,0,0,0,0,0,0,0.1645,0.1644,0.1605,0.1605,0.1604,0.1599,0.1599,0.1599,0.1596,0.1596,0.1596,0.1596,0.1618,0.1618,0.1619,0,0,0,0,0,0,0,0,0,0,0,0,0,0.1632,0.1643,0.1605,0.1602,0.1602,0.1599,0.1599,0.1599,0.1596,0.1596,0.1596,0.1596,0.1617,0.1618,0.1619,0.1624,0,0,0.1622,0.1622,0,0,0,0,0,0,0,0,0.1633,0.163,0.1603,0.1603,0.1602,0.1598,0.1621,0.1609,0.1596,0.1598,0.1596,0.1596,0.1614,0.1615,0.1613,0.1625,0.1626,0.1622,0.1622,0.1623,0.1623,0,0,0,0,0,0,0,0.1633,0.1631,0.1602,0.1603,0.1602,0.1613,0.1611,0.1619,0.1606,0.1598,0.1598,0.1597,0.1614,0.1613,0.1614,0.1626,0.1622,0.1622,0.1623,0.1623,0.1653,0.1653,0,0,0,0,0,0,0.1632,0.1631,0.1602,0.1602,0.1618,0.1612,0.161,0.16,0.1606,0.1607,0.1597,0.1597,0.1611,0.1613,0.1615,0.1641,0.1623,0.1623,0.1624,0.1653,0.1653,0.1654,0,0,0,0,0,0,0.1633,0.1629,0.1603,0.1618,0.1615,0.1611,0.16,0.1599,0.16,0.1605,0.1606,0.1599,0.1611,0.1614,0.1623,0.1641,0.1624,0.1625,0.1653,0.1653,0.1653,0.168,0,0,0,0,0,0,0.1634,0.1629,0.1626,0.1617,0.1614,0.1606,0.16,0.1599,0.16,0.16,0.1607,0.1609,0.1611,0.1622,0.1624,0.1642,0.1625,0.1652,0.1653,0.1653,0.1679,0.1682,0.1684,0,0,0,0,0,0.1635,0.1627,0.1626,0.1623,0.1607,0.1607,0.1606,0.1604,0.16,0.1604,0.1605,0.1609,0.1627,0.1622,0.1625,0.1644,0.1652,0.1653,0.1653,0.1678,0.1681,0.1684,0,0,0,0,0,0,0.1635,0.1626,0.1624,0.1611,0.1613,0.1606,0.161,0.1606,0.1609,0.161,0.1611,0.1613,0.1625,0.1629,0.1624,0.1652,0.1641,0.1642,0.1659,0.1662,0.1664,0.1681,0.1626,0,0,0,0,0,0.1635,0.1632,0.1625,0.1617,0.1619,0.1615,0.1615,0.1614,0.1613,0.1614,0.1618,0.1624,0.1629,0.164,0.1642,0.1662,0.1689,0.1675,0.1677,0.1679,0.1694,0.1727,0.1734,0.1656,0.1656,0.1656,0,0,0.1632,0.1629,0.1625,0.1619,0.162,0.163,0.1615,0.1618,0.1631,0.1617,0.1636,0.1628,0.1632,0.1649,0.1657,0.1658,0.1722,0.168,0.1682,0.1696,0.1728,0.1736,0.1743,0.1656,0.1656,0.1656,0,0,0.1634,0.1623,0.1627,0.1633,0.1638,0.164,0.1642,0.164,0.1644,0.1655,0.1648,0.1652,0.1663,0.1673,0.1678,0.1696,0.1724,0.1695,0.1735,0.1766,0.1773,0.1779,0.1854,0.1866,0.1707,0.1707,0.1707,0,0.1636,0.1638,0.1629,0.1642,0.1657,0.1647,0.1667,0.1667,0.1669,0.1691,0.1666,0.1688,0.1677,0.1715,0.1712,0.1704,0.174,0.1724,0.1771,0.1777,0.1784,0.1858,0.1872,0.1708,0.1708,0.1708,0.1708,0,0.1644,0.1655,0.166,0.1677,0.169,0.1704,0.171,0.1725,0.1726,0.1734,0.176,0.1739,0.1766,0.175,0.1733,0.1776,0.1795,0.1762,0.1767,0.1794,0.187,0.1884,0.171,0.171,0.1709,0.1709,0,0,0.1636,0.1662,0.1668,0.1697,0.1716,0.1731,0.1761,0.1799,0.1839,0.1823,0.1882,0.1851,0.1849,0.1853,0.1833,0.1842,0.1907,0.1823,0.1824,0.1905,0.2018,0.2129,0.2155,0.1881,0.1883,0.1885,0.2065,0,0.1656,0.1693,0.1703,0.1754,0.1781,0.1801,0.184,0.1872,0.1892,0.1942,0.1927,0.1962,0.1888,0.1908,0.1903,0.1909,0.1941,0.1864,0.1974,0.1978,0.2079,0.2173,0.2115,0.2279,0.2079,0.2081,0.2083,0,0.167,0.1698,0.1747,0.1821,0.1837,0.1866,0.195,0.1982,0.2042,0.2065,0.2091,0.209,0.2121,0.2037,0.2081,0.204,0.2037,0.2026,0.2032,0.2137,0.2115,0.2213,0.2312,0.2253,0.2105,0.2103,0.2101,0,0.1684,0.1741,0.1788,0.1806,0.1872,0.1914,0.1957,0.2022,0.2074,0.2153,0.221,0.2233,0.2273,0.2254,0.2251,0.2172,0.2315,0.2207,0.2311,0.232,0.2296,0.2301,0.2357,0.2243,0.2242,0.2242,0.2241,0,0.1708,0.1746,0.1799,0.1821,0.19,0.1942,0.2027,0.208,0.2168,0.2234,0.2275,0.2342,0.2322,0.2397,0.2344,0.2429,0.2408,0.2365,0.2385,0.2309,0.2312,0.2278,0.2225,0.2249,0.2247,0.2246,0.2245,0,0.1708,0.1738,0.1796,0.1872,0.1903,0.1957,0.2062,0.2109,0.2217,0.231,0.2349,0.2468,0.2573,0.2601,0.2625,0.2595,0.2581,0.2655,0.2607,0.2618,0.2623,0.2573,0.2588,0.2501,0.2788,0.2792,0.2796,0,0.1711,0.1737,0.182,0.1842,0.1873,0.1953,0.1995,0.2112,0.2165,0.2366,0.2408,0.2594,0.2682,0.2862,0.2871,0.2923,0.275,0.2901,0.2718,0.2677,0.2633,0.2477,0.2386,0.2699,0.2701,0.2703,0.2704,0,0.1716,0.174,0.1778,0.1822,0.1865,0.192,0.1997,0.2058,0.2187,0.2297,0.2451,0.2565,0.2805,0.2879,0.3042,0.3026,0.2793,0.2944,0.2881,0.2586,0.2436,0.2344,0.2557,0.2721,0.2719,0.2718,0.2717,0.2717,0.171,0.1731,0.1765,0.1802,0.1833,0.1858,0.1896,0.1977,0.2082,0.2235,0.2388,0.2552,0.279,0.3013,0.3022,0.3057,0.2925,0.2927,0.2881,0.2737,0.2613,0.2921,0.3117,0.3117,0.3118,0.3118,0.3119,0,0.169,0.1708,0.1736,0.1767,0.1758,0.1799,0.1865,0.1899,0.1979,0.2153,0.2292,0.2549,0.2728,0.2898,0.3056,0.2985,0.2769,0.2909,0.2612,0.2527,0.28,0.2756,0.2907,0.2907,0.2907,0.2907,0.2907,0.2907,0.1678,0.1689,0.1699,0.168,0.1686,0.1685,0.1706,0.177,0.189,0.2058,0.221,0.2362,0.2699,0.2981,0.3009,0.2922,0.2632,0.2586,0.2514,0.266,0.2654,0.2647,0.2592,0.2706,0.2706,0.2113,0.2109,0.2106]},{"header":{"parameterUnit":"m.s-1","parameterCategory":2,"la1":30.2991,"la2":30.254,"lo1":-89.0895,"lo2":-89.0444,"dy":0.0017,"dx":0.0017,"nx":28,"ny":28,"refTime":"2025-09-11T09:00:00:Z","depth":"0","parameterNumber":3,"parameterNumberName":"V-component_of_CURRENTS"},"data":[0,0,0,0,0,0,0,0,0,0,0,0,0,0,0,0,0,0,0,0,0,0,0,0,0,0,0,0,0,0,0,0,0,0,0,0,0,0,0,0,0,0,0,0,0,0,0,0,0,0,0,0,0,0,0,0,0,0,-0.0714,-0.0715,0,-0.0875,-0.0876,-0.0878,-0.098,-0.0981,-0.0981,-0.0982,-0.1148,-0.1152,-0.1156,0,0,0,0,0,0,0,0,0,0,0,0,0,-0.0602,-0.0603,-0.0713,-0.0715,-0.0717,-0.0874,-0.0876,-0.0879,-0.098,-0.0981,-0.0981,-0.0982,-0.1147,-0.1151,-0.1156,0,0,0,0,0,0,0,0,0,0,0,0,0,-0.0696,-0.0603,-0.0713,-0.0786,-0.0794,-0.0874,-0.0877,-0.0879,-0.098,-0.0981,-0.0982,-0.0982,-0.1145,-0.1151,-0.1157,-0.1178,0,0,-0.1175,-0.1177,0,0,0,0,0,0,0,0,-0.069,-0.07,-0.0774,-0.0781,-0.0791,-0.0907,-0.0898,-0.0979,-0.098,-0.091,-0.0982,-0.0983,-0.1067,-0.1079,-0.1109,-0.1185,-0.1192,-0.1175,-0.1179,-0.1181,-0.1183,0,0,0,0,0,0,0,-0.0683,-0.0694,-0.0778,-0.0776,-0.0786,-0.0848,-0.0861,-0.0915,-0.0983,-0.0916,-0.0924,-0.094,-0.1072,-0.1103,-0.1114,-0.1195,-0.1175,-0.118,-0.1184,-0.1186,-0.1306,-0.1306,0,0,0,0,0,0,-0.0655,-0.0687,-0.0773,-0.0783,-0.074,-0.0849,-0.0864,-0.087,-0.0983,-0.1,-0.094,-0.0945,-0.1092,-0.1106,-0.112,-0.116,-0.1181,-0.1187,-0.119,-0.1307,-0.1306,-0.1306,0,0,0,0,0,0,-0.0652,-0.0661,-0.0766,-0.0739,-0.0757,-0.0849,-0.0856,-0.0872,-0.0904,-0.1,-0.1018,-0.0953,-0.1094,-0.1111,-0.1156,-0.1167,-0.119,-0.1195,-0.1307,-0.1306,-0.1306,-0.1235,0,0,0,0,0,0,-0.0648,-0.0659,-0.066,-0.0736,-0.0757,-0.0803,-0.0855,-0.0875,-0.0912,-0.092,-0.1017,-0.1034,-0.1096,-0.1147,-0.1162,-0.1175,-0.12,-0.1307,-0.1307,-0.1306,-0.1238,-0.1232,-0.1227,0,0,0,0,0,-0.0643,-0.0643,-0.0658,-0.067,-0.0753,-0.0802,-0.0818,-0.0888,-0.0912,-0.092,-0.098,-0.1031,-0.1154,-0.1151,-0.1169,-0.1184,-0.1308,-0.1307,-0.1306,-0.124,-0.1233,-0.1227,0,0,0,0,0,0,-0.0621,-0.0655,-0.0674,-0.0691,-0.0735,-0.0819,-0.0838,-0.0877,-0.0933,-0.0938,-0.1024,-0.1044,-0.1088,-0.1138,-0.1132,-0.1215,-0.124,-0.1243,-0.1184,-0.1178,-0.1173,-0.1141,-0.1205,0,0,0,0,0,-0.0606,-0.0601,-0.0656,-0.0671,-0.0683,-0.0754,-0.0784,-0.0824,-0.0882,-0.0909,-0.0974,-0.1041,-0.1099,-0.1137,-0.119,-0.1234,-0.1257,-0.1256,-0.125,-0.1246,-0.123,-0.1279,-0.1276,-0.1303,-0.1303,-0.1303,0,0,-0.0605,-0.0623,-0.0625,-0.0663,-0.0702,-0.0713,-0.0774,-0.0807,-0.0827,-0.0916,-0.0958,-0.1019,-0.1102,-0.1152,-0.1177,-0.1198,-0.1244,-0.1245,-0.124,-0.1227,-0.1277,-0.1275,-0.1273,-0.1303,-0.1303,-0.1303,0,0,-0.0586,-0.0607,-0.0587,-0.0609,-0.0647,-0.0688,-0.0686,-0.0753,-0.0791,-0.0833,-0.0903,-0.0958,-0.1049,-0.1114,-0.1158,-0.1151,-0.1205,-0.1178,-0.114,-0.1187,-0.1185,-0.1184,-0.1179,-0.1178,-0.1186,-0.1186,-0.1186,0,-0.0586,-0.056,-0.0596,-0.0583,-0.0591,-0.0663,-0.0646,-0.07,-0.0778,-0.08,-0.0831,-0.0957,-0.103,-0.1096,-0.1104,-0.114,-0.1158,-0.116,-0.118,-0.1179,-0.1179,-0.1175,-0.1174,-0.1183,-0.1183,-0.1183,-0.1184,0,-0.0545,-0.0525,-0.0517,-0.051,-0.053,-0.0527,-0.0587,-0.0615,-0.0662,-0.0722,-0.0785,-0.0883,-0.0956,-0.1,-0.1058,-0.1102,-0.1108,-0.1158,-0.1193,-0.1172,-0.1168,-0.1169,-0.1178,-0.1179,-0.118,-0.1181,0,0,-0.0538,-0.0487,-0.0485,-0.0444,-0.0478,-0.0481,-0.0509,-0.0547,-0.0547,-0.0652,-0.0665,-0.0796,-0.0852,-0.0903,-0.0989,-0.1047,-0.1064,-0.1102,-0.1106,-0.1088,-0.113,-0.1054,-0.1048,-0.1126,-0.1127,-0.1127,-0.1117,0,-0.0488,-0.0404,-0.0415,-0.0356,-0.0313,-0.0369,-0.038,-0.0433,-0.0489,-0.0525,-0.0656,-0.0699,-0.0819,-0.0839,-0.0925,-0.1028,-0.1068,-0.1059,-0.116,-0.1161,-0.1091,-0.1047,-0.0996,-0.0977,-0.1118,-0.1118,-0.1119,0,-0.0442,-0.0379,-0.0288,-0.0225,-0.0214,-0.0207,-0.0203,-0.0221,-0.0311,-0.036,-0.0454,-0.0545,-0.0658,-0.0744,-0.0919,-0.0911,-0.1004,-0.1086,-0.1089,-0.1042,-0.1087,-0.1028,-0.0974,-0.1136,-0.112,-0.112,-0.112,0,-0.0376,-0.0297,-0.0201,-0.0183,-0.0139,-0.0119,-0.0112,-0.0169,-0.0158,-0.0244,-0.0241,-0.0413,-0.0451,-0.0634,-0.0821,-0.0868,-0.0981,-0.1069,-0.1079,-0.1073,-0.1058,-0.105,-0.1166,-0.1158,-0.1158,-0.1158,-0.1159,0,-0.0303,-0.0231,-0.0152,-0.0098,0.0004,-0.0015,0.0056,0.0027,0.0004,0.0029,-0.014,-0.0134,-0.0424,-0.0535,-0.0747,-0.0892,-0.0925,-0.104,-0.1065,-0.1027,-0.1016,-0.1181,-0.129,-0.1158,-0.1158,-0.1158,-0.1158,0,-0.0236,-0.0185,-0.0069,0.0015,0.0047,0.0118,0.0186,0.0228,0.0193,0.0229,0.0217,0.0093,-0.0035,-0.0297,-0.0543,-0.0734,-0.0986,-0.0956,-0.0858,-0.087,-0.1036,-0.114,-0.1252,-0.1314,-0.0965,-0.0963,-0.0962,0,-0.0181,-0.011,0.0024,0.01,0.0148,0.0246,0.0306,0.0312,0.036,0.0375,0.0408,0.0335,0.0281,-0.0023,-0.0343,-0.0637,-0.086,-0.0787,-0.0879,-0.1003,-0.1142,-0.1229,-0.1282,-0.0827,-0.0825,-0.0823,-0.0821,0,-0.0077,-0.0038,0.0062,0.0215,0.031,0.0421,0.0513,0.0586,0.0596,0.0644,0.0708,0.0692,0.0458,0.0215,-0.0151,-0.039,-0.0874,-0.0747,-0.0934,-0.1067,-0.1116,-0.12,-0.0848,-0.0802,-0.0804,-0.0805,-0.0806,-0.0807,-0.0009,0.0079,0.0199,0.034,0.0448,0.0575,0.0672,0.0767,0.0884,0.0975,0.0949,0.0976,0.0631,0.0169,-0.0139,-0.0638,-0.0692,-0.0838,-0.0957,-0.1034,-0.1091,-0.0647,-0.0598,-0.0598,-0.0599,-0.06,-0.06,0,0.0098,0.0182,0.0314,0.0478,0.0595,0.0634,0.0792,0.089,0.1042,0.1159,0.1223,0.1098,0.0675,0.0202,-0.0443,-0.0807,-0.0996,-0.1037,-0.1201,-0.1252,-0.0903,-0.0893,-0.0835,-0.0835,-0.0835,-0.0835,-0.0834,-0.0834,0.0162,0.0302,0.0364,0.0569,0.0673,0.0831,0.0924,0.1077,0.1201,0.138,0.1439,0.1439,0.1086,-0.0113,-0.0923,-0.1126,-0.1431,-0.1454,-0.1623,-0.1445,-0.1438,-0.1432,-0.1449,-0.1508,-0.1509,-0.1919,-0.1923,-0.1926]}],[{"header":{"parameterUnit":"m.s-1","parameterCategory":2,"la1":30.2991,"la2":30.254,"lo1":-89.0895,"lo2":-89.0444,"dy":0.0017,"dx":0.0017,"nx":28,"ny":28,"refTime":"2025-09-11T09:00:00:Z","depth":"2","parameterNumber":2,"parameterNumberName":"U-component_of_CURRENTS"},"data":[0,0,0,0,0,0,0,0,0,0,0,0,0,0,0,0,0,0,0,0,0,0,0,0,0,0,0,0,0,0,0,0,0,0,0,0,0,0,0,0,0,0,0,0,0,0,0,0,0,0,0,0,0,0,0,0,0,0,0.1692,0.1692,0,0.1739,0.174,0.1741,0.1783,0.1783,0.1783,0.1783,0.1802,0.1802,0.1803,0,0,0,0,0,0,0,0,0,0,0,0,0,0.17,0.17,0.1692,0.1692,0.1692,0.1739,0.174,0.1741,0.1783,0.1783,0.1783,0.1783,0.1802,0.1802,0.1803,0,0,0,0,0,0,0,0,0,0,0,0,0,0.1721,0.17,0.1692,0.1716,0.1718,0.1739,0.174,0.1741,0.1783,0.1783,0.1783,0.1783,0.1802,0.1802,0.1803,0.1803,0,0,0.1805,0.1805,0,0,0,0,0,0,0,0,0.1719,0.1721,0.1712,0.1714,0.1717,0.1752,0.1749,0.1759,0.1783,0.1763,0.1783,0.1784,0.178,0.1782,0.1797,0.1804,0.1804,0.1805,0.1805,0.1805,0.1805,0,0,0,0,0,0,0,0.1718,0.1719,0.1715,0.1712,0.1715,0.1745,0.1748,0.1752,0.1772,0.1765,0.1767,0.1765,0.1781,0.1796,0.1797,0.1805,0.1805,0.1805,0.1805,0.1806,0.1861,0.1862,0,0,0,0,0,0,0.17,0.1717,0.1713,0.1716,0.1714,0.1744,0.1748,0.1744,0.1773,0.1777,0.1765,0.1767,0.1795,0.1797,0.1798,0.1844,0.1805,0.1806,0.1806,0.186,0.1861,0.1863,0,0,0,0,0,0,0.17,0.1699,0.1711,0.1715,0.1718,0.1743,0.1739,0.1744,0.175,0.1773,0.1777,0.1763,0.1795,0.1797,0.1812,0.1843,0.1806,0.1806,0.1859,0.186,0.1862,0.1907,0,0,0,0,0,0,0.17,0.1699,0.1691,0.1713,0.1717,0.1728,0.1738,0.1745,0.1748,0.1751,0.1773,0.1776,0.1796,0.1811,0.1812,0.1843,0.1807,0.1857,0.1859,0.1861,0.1904,0.191,0.1915,0,0,0,0,0,0.17,0.1692,0.169,0.1689,0.1704,0.1727,0.1733,0.1755,0.1747,0.1759,0.1775,0.1774,0.1826,0.1812,0.1813,0.1845,0.1856,0.1859,0.1861,0.1901,0.1908,0.1914,0,0,0,0,0,0,0.1696,0.1695,0.1694,0.1687,0.1704,0.1733,0.1741,0.1744,0.1765,0.1767,0.178,0.1785,0.1813,0.1815,0.1799,0.1868,0.1844,0.1847,0.1874,0.1881,0.1886,0.1867,0.1807,0,0,0,0,0,0.1687,0.1679,0.169,0.1686,0.1692,0.171,0.1718,0.1733,0.1752,0.1762,0.1773,0.1794,0.1826,0.184,0.186,0.1886,0.1901,0.191,0.1916,0.1921,0.1907,0.1947,0.1955,0.1871,0.1871,0.1871,0,0,0.1675,0.1681,0.1671,0.1684,0.1699,0.172,0.1717,0.1733,0.1758,0.1758,0.1789,0.1805,0.1834,0.188,0.1893,0.1885,0.1963,0.1924,0.1928,0.1911,0.1951,0.1959,0.1966,0.1873,0.1872,0.1872,0,0,0.167,0.1663,0.166,0.1677,0.1698,0.1721,0.1718,0.1741,0.1761,0.1785,0.1805,0.1827,0.1862,0.1901,0.1923,0.1961,0.1984,0.198,0.1999,0.204,0.2047,0.2053,0.2126,0.2138,0.199,0.199,0.199,0,0.1659,0.1662,0.1665,0.1682,0.1699,0.1717,0.1736,0.1763,0.1789,0.1815,0.1798,0.1867,0.1874,0.1949,0.1966,0.1973,0.2013,0.1975,0.2047,0.2053,0.2059,0.2131,0.2144,0.1993,0.1992,0.1992,0.1992,0,0.1658,0.1666,0.1672,0.1699,0.1721,0.1741,0.1777,0.1808,0.1821,0.1849,0.1902,0.1916,0.1962,0.1975,0.1977,0.204,0.2064,0.2045,0.2029,0.207,0.2144,0.2157,0.1996,0.1995,0.1994,0.1994,0,0,0.1631,0.1661,0.1666,0.169,0.1733,0.1759,0.181,0.187,0.1922,0.1933,0.1994,0.202,0.2024,0.2046,0.2063,0.2083,0.2158,0.208,0.2081,0.2151,0.2287,0.226,0.2271,0.2162,0.2163,0.2164,0.234,0,0.1636,0.1664,0.1683,0.1731,0.1755,0.1801,0.1855,0.1914,0.1965,0.2032,0.205,0.2108,0.206,0.2095,0.2105,0.215,0.2187,0.2114,0.2237,0.2241,0.2209,0.2282,0.2099,0.2235,0.2352,0.2354,0.2356,0,0.1637,0.1664,0.1696,0.1767,0.1783,0.182,0.193,0.1979,0.208,0.2121,0.2172,0.2197,0.2248,0.2185,0.2268,0.2233,0.2254,0.227,0.2277,0.2233,0.2234,0.2204,0.2253,0.2376,0.2375,0.2373,0.2372,0,0.1631,0.1682,0.1711,0.173,0.1807,0.1849,0.1901,0.2005,0.2071,0.2186,0.2246,0.2306,0.2357,0.2371,0.2401,0.2349,0.2496,0.2435,0.2437,0.2438,0.2292,0.2276,0.248,0.248,0.2479,0.2479,0.2478,0,0.1629,0.1658,0.1713,0.1731,0.1799,0.1852,0.1944,0.2019,0.2132,0.2208,0.2284,0.2352,0.2399,0.2485,0.2473,0.252,0.2567,0.2453,0.2476,0.2308,0.2292,0.24,0.2389,0.2485,0.2484,0.2483,0.2481,0,0.1605,0.1633,0.1684,0.1764,0.1792,0.1842,0.1954,0.2018,0.2141,0.2246,0.2285,0.2429,0.2518,0.2589,0.2661,0.2632,0.2668,0.2673,0.2493,0.2489,0.2564,0.2553,0.2676,0.2676,0.2677,0.2677,0.2677,0,0.1592,0.161,0.1695,0.1717,0.1748,0.1826,0.1873,0.2005,0.2075,0.2265,0.2306,0.2463,0.2527,0.2683,0.2679,0.2725,0.2721,0.2583,0.2404,0.2572,0.2582,0.2571,0.2559,0.2261,0.2257,0.2255,0.2253,0,0.1579,0.1607,0.1645,0.1684,0.1729,0.1785,0.1865,0.1923,0.2066,0.2167,0.229,0.2366,0.2523,0.2497,0.2603,0.2575,0.2552,0.2528,0.278,0.2225,0.2189,0.2197,0.2197,0.2229,0.2232,0.2233,0.2235,0.2236,0.1575,0.1591,0.1627,0.1654,0.1692,0.1716,0.1742,0.1826,0.1918,0.2038,0.2168,0.2235,0.2325,0.2355,0.2325,0.2313,0.2439,0.2326,0.233,0.2338,0.2244,0.2209,0.2239,0.2241,0.2243,0.2245,0.2246,0,0.156,0.1567,0.1586,0.1616,0.1608,0.1653,0.1711,0.1715,0.1765,0.1897,0.1989,0.1898,0.1941,0.2016,0.1966,0.1996,0.1929,0.191,0.18,0.1828,0.1851,0.1725,0.1586,0.1584,0.1581,0.1579,0,0,0.1559,0.1552,0.1546,0.1517,0.1527,0.151,0.152,0.1526,0.1596,0.161,0.1656,0.1858,0.1971,0.1743,0.1742,0.1653,0.171,0.1592,0.2133,0.2031,0.205,0.2119,0.1962,0,0,0,0,0]},{"header":{"parameterUnit":"m.s-1","parameterCategory":2,"la1":30.2991,"la2":30.254,"lo1":-89.0895,"lo2":-89.0444,"dy":0.0017,"dx":0.0017,"nx":28,"ny":28,"refTime":"2025-09-11T09:00:00:Z","depth":"2","parameterNumber":3,"parameterNumberName":"V-component_of_CURRENTS"},"data":[0,0,0,0,0,0,0,0,0,0,0,0,0,0,0,0,0,0,0,0,0,0,0,0,0,0,0,0,0,0,0,0,0,0,0,0,0,0,0,0,0,0,0,0,0,0,0,0,0,0,0,0,0,0,0,0,0,0,-0.0157,-0.0158,0,-0.0159,-0.0158,-0.0157,-0.0153,-0.0154,-0.0156,-0.0157,-0.0298,-0.0301,-0.0304,0,0,0,0,0,0,0,0,0,0,0,0,0,-0.0074,-0.0075,-0.0156,-0.0158,-0.0159,-0.0159,-0.0158,-0.0157,-0.0153,-0.0155,-0.0156,-0.0157,-0.0297,-0.0301,-0.0304,0,0,0,0,0,0,0,0,0,0,0,0,0,-0.0083,-0.0075,-0.0156,-0.0168,-0.017,-0.0159,-0.0158,-0.0156,-0.0153,-0.0155,-0.0156,-0.0158,-0.0296,-0.03,-0.0304,-0.0294,0,0,-0.0316,-0.0318,0,0,0,0,0,0,0,0,-0.0083,-0.0084,-0.0165,-0.0167,-0.017,-0.017,-0.0181,-0.0214,-0.0152,-0.0144,-0.0157,-0.0159,-0.0276,-0.0282,-0.0256,-0.03,-0.0307,-0.0317,-0.0319,-0.0321,-0.0322,0,0,0,0,0,0,0,-0.0082,-0.0084,-0.0143,-0.0166,-0.0169,-0.0149,-0.0151,-0.0185,-0.0192,-0.0145,-0.0148,-0.0171,-0.0277,-0.0252,-0.026,-0.0309,-0.0317,-0.032,-0.0323,-0.0324,-0.0434,-0.0435,0,0,0,0,0,0,-0.0112,-0.0084,-0.0143,-0.0145,-0.0145,-0.015,-0.0152,-0.0156,-0.0189,-0.0198,-0.0169,-0.0171,-0.0244,-0.0256,-0.0266,-0.0308,-0.0321,-0.0325,-0.0327,-0.0434,-0.0434,-0.0435,0,0,0,0,0,0,-0.011,-0.0117,-0.0143,-0.0126,-0.013,-0.0151,-0.0156,-0.0156,-0.0174,-0.0208,-0.0218,-0.0194,-0.0246,-0.026,-0.0331,-0.0313,-0.0327,-0.033,-0.0433,-0.0434,-0.0435,-0.0362,0,0,0,0,0,0,-0.0107,-0.0115,-0.0131,-0.0128,-0.0133,-0.0159,-0.0156,-0.0155,-0.019,-0.0192,-0.0233,-0.0244,-0.0249,-0.0325,-0.0335,-0.0319,-0.0333,-0.0433,-0.0434,-0.0434,-0.0364,-0.036,-0.0357,0,0,0,0,0,-0.0104,-0.0121,-0.0131,-0.014,-0.0153,-0.0162,-0.016,-0.0171,-0.019,-0.0193,-0.0232,-0.0245,-0.0337,-0.0329,-0.0341,-0.0325,-0.0432,-0.0433,-0.0434,-0.0365,-0.0361,-0.0357,0,0,0,0,0,0,-0.0078,-0.0124,-0.0134,-0.016,-0.0175,-0.0167,-0.0179,-0.0194,-0.0218,-0.0229,-0.0263,-0.0276,-0.0324,-0.0351,-0.0341,-0.0362,-0.0383,-0.0386,-0.0326,-0.0322,-0.0319,-0.0345,-0.0337,0,0,0,0,0,-0.0086,-0.011,-0.0143,-0.0156,-0.0174,-0.0182,-0.0194,-0.0198,-0.0223,-0.0234,-0.0267,-0.0302,-0.0326,-0.0351,-0.0377,-0.0403,-0.044,-0.04,-0.0397,-0.0393,-0.0424,-0.0463,-0.0466,-0.0439,-0.0439,-0.0439,0,0,-0.009,-0.0106,-0.0128,-0.0154,-0.016,-0.0161,-0.0189,-0.0207,-0.0201,-0.025,-0.0266,-0.0302,-0.0336,-0.0347,-0.037,-0.0375,-0.0415,-0.0395,-0.0391,-0.0425,-0.0465,-0.0467,-0.047,-0.044,-0.0439,-0.0439,0,0,-0.0082,-0.0113,-0.0134,-0.0129,-0.0155,-0.0164,-0.0186,-0.0202,-0.0211,-0.0244,-0.0261,-0.0312,-0.0351,-0.0356,-0.0368,-0.0378,-0.04,-0.0372,-0.037,-0.0405,-0.0407,-0.041,-0.0428,-0.0433,-0.0364,-0.0364,-0.0363,0,-0.0088,-0.0087,-0.0138,-0.0121,-0.0113,-0.0173,-0.016,-0.0172,-0.0206,-0.0221,-0.0254,-0.0319,-0.0353,-0.0362,-0.0358,-0.0369,-0.0389,-0.037,-0.0399,-0.0403,-0.0407,-0.0425,-0.0432,-0.036,-0.0361,-0.0361,-0.0361,0,-0.0073,-0.0063,-0.0064,-0.0067,-0.0074,-0.0064,-0.0097,-0.012,-0.0165,-0.0184,-0.0237,-0.0288,-0.033,-0.0331,-0.0353,-0.0378,-0.0381,-0.0389,-0.0402,-0.0405,-0.0424,-0.0432,-0.0355,-0.0357,-0.0358,-0.0358,0,0,-0.0103,-0.0069,-0.0067,-0.0026,-0.003,-0.0026,-0.004,-0.0068,-0.0075,-0.0147,-0.0163,-0.0231,-0.0286,-0.0307,-0.0331,-0.0374,-0.0407,-0.0395,-0.0398,-0.0401,-0.0473,-0.0412,-0.0415,-0.0409,-0.0411,-0.0412,-0.0462,0,-0.0072,-0.0015,-0.0018,0.0044,0.0076,0.0051,0.0052,0.0022,-0.0026,-0.0058,-0.0153,-0.018,-0.0262,-0.0271,-0.0337,-0.0387,-0.0432,-0.0393,-0.0483,-0.0486,-0.0422,-0.0424,-0.041,-0.0448,-0.047,-0.0471,-0.0472,0,-0.0045,-0.0002,0.0061,0.0136,0.0139,0.0156,0.0156,0.0156,0.0087,0.0044,-0.004,-0.0105,-0.0194,-0.0252,-0.0394,-0.0361,-0.0431,-0.0482,-0.0485,-0.0471,-0.0442,-0.0459,-0.0463,-0.0486,-0.0485,-0.0484,-0.0483,0,-0.0004,0.0065,0.0123,0.0158,0.0202,0.0215,0.0218,0.0179,0.0195,0.0114,0.0107,-0.0036,-0.0068,-0.0219,-0.0353,-0.037,-0.0493,-0.0516,-0.0532,-0.0527,-0.0561,-0.0556,-0.0626,-0.0626,-0.0626,-0.0626,-0.0625,0,0.0067,0.0118,0.0152,0.0201,0.0269,0.0275,0.032,0.0296,0.0279,0.0301,0.0168,0.0165,-0.0062,-0.0156,-0.032,-0.0444,-0.047,-0.0549,-0.0544,-0.053,-0.0522,-0.0602,-0.0599,-0.0627,-0.0627,-0.0627,-0.0626,0,0.0124,0.0145,0.023,0.0279,0.0302,0.0351,0.0414,0.0443,0.0414,0.0444,0.0428,0.0326,0.0202,-0.0004,-0.0207,-0.0346,-0.0498,-0.0529,-0.0488,-0.0478,-0.0522,-0.0515,-0.0574,-0.0572,-0.0571,-0.057,-0.0569,0,0.0155,0.0207,0.029,0.0341,0.0371,0.0441,0.0488,0.0498,0.0541,0.0551,0.0577,0.0494,0.0426,0.0161,-0.0101,-0.0357,-0.0411,-0.0477,-0.0522,-0.0531,-0.0521,-0.0516,-0.051,-0.0534,-0.0533,-0.0532,-0.0531,0,0.0226,0.0248,0.0314,0.0417,0.0486,0.0576,0.0649,0.071,0.0723,0.0757,0.0789,0.0747,0.0516,0.0273,-0.0036,-0.0217,-0.0447,-0.0461,-0.0496,-0.0528,-0.0492,-0.0482,-0.0479,-0.0523,-0.0524,-0.0524,-0.0525,-0.0525,0.0262,0.0325,0.0402,0.0504,0.0586,0.0689,0.0772,0.0846,0.0935,0.0994,0.0952,0.0907,0.0633,0.0252,-0.0039,-0.0334,-0.0341,-0.0466,-0.0471,-0.0476,-0.0441,-0.0403,-0.0411,-0.0411,-0.0411,-0.0411,-0.0411,0,0.0327,0.0391,0.0485,0.0604,0.0698,0.0732,0.0865,0.0945,0.1056,0.1105,0.1124,0.0889,0.0625,0.032,-0.0105,-0.0363,-0.0431,-0.0442,-0.0484,-0.049,-0.0495,-0.0464,-0.0438,-0.0439,-0.044,-0.044,0,0,0.0356,0.0463,0.0516,0.0672,0.0755,0.0898,0.098,0.1092,0.1163,0.1215,0.1201,0.1122,0.0738,0.0435,0.0065,-0.0178,-0.0276,-0.0232,-0.0184,-0.0197,-0.0199,-0.0484,-0.0437,0,0,0,0,0]}],[{"header":{"parameterUnit":"m.s-1","parameterCategory":2,"la1":30.2991,"la2":30.254,"lo1":-89.0895,"lo2":-89.0444,"dy":0.0017,"dx":0.0017,"nx":28,"ny":28,"refTime":"2025-09-11T09:00:00:Z","depth":"4","parameterNumber":2,"parameterNumberName":"U-component_of_CURRENTS"},"data":[0,0,0,0,0,0,0,0,0,0,0,0,0,0,0,0,0,0,0,0,0,0,0,0,0,0,0,0,0,0,0,0,0,0,0,0,0,0,0,0,0,0,0,0,0,0,0,0,0,0,0,0,0,0,0,0,0,0,0.0932,0.0933,0,0.1008,0.1009,0.101,0.1065,0.1065,0.1066,0.1066,0.113,0.1132,0.1133,0,0,0,0,0,0,0,0,0,0,0,0,0,0.0836,0.0838,0.0932,0.0933,0.0934,0.1008,0.1009,0.101,0.1065,0.1065,0.1066,0.1067,0.113,0.1131,0.1133,0,0,0,0,0,0,0,0,0,0,0,0,0,0.0891,0.0838,0.0932,0.0971,0.0975,0.1008,0.1009,0.101,0.1065,0.1065,0.1066,0.1067,0.113,0.1131,0.1133,0.1128,0,0,0.1139,0.1139,0,0,0,0,0,0,0,0,0.0887,0.0894,0.0964,0.0968,0.0973,0.1029,0.0999,0.1049,0.1064,0.103,0.1066,0.1067,0.1095,0.11,0.1111,0.1131,0.1133,0.1139,0.114,0.1141,0.1141,0,0,0,0,0,0,0,0.0884,0.0891,0.0961,0.0965,0.0971,0.0986,0.0994,0.1009,0.1056,0.1033,0.1037,0.1047,0.1098,0.1109,0.1113,0.1134,0.1139,0.114,0.1141,0.1142,0.1237,0.1238,0,0,0,0,0,0,0.0875,0.0887,0.0959,0.0963,0.0933,0.0987,0.0996,0.1009,0.1056,0.1064,0.1046,0.1049,0.1106,0.1111,0.1116,0.1184,0.1141,0.1142,0.1143,0.1235,0.1237,0.1238,0,0,0,0,0,0,0.0873,0.0881,0.0956,0.0928,0.0938,0.0988,0.1002,0.101,0.1047,0.1067,0.1075,0.1077,0.1107,0.1113,0.1154,0.1184,0.1143,0.1145,0.1233,0.1236,0.1238,0.1274,0,0,0,0,0,0,0.087,0.088,0.0896,0.0927,0.094,0.099,0.1001,0.1011,0.105,0.1056,0.1095,0.11,0.1108,0.1151,0.1156,0.1186,0.1146,0.1232,0.1234,0.1237,0.1271,0.1277,0.1282,0,0,0,0,0,0.0866,0.0877,0.0896,0.0906,0.0957,0.0991,0.0999,0.1035,0.1051,0.1071,0.1101,0.11,0.1172,0.1154,0.1159,0.119,0.123,0.1234,0.1237,0.1268,0.1276,0.1282,0,0,0,0,0,0,0.085,0.0885,0.0906,0.0931,0.0968,0.1001,0.1023,0.1047,0.1086,0.1099,0.1115,0.1123,0.1172,0.1175,0.1155,0.1226,0.1203,0.1207,0.1225,0.1232,0.1237,0.1242,0.1148,0,0,0,0,0,0.0852,0.0867,0.0909,0.0931,0.0951,0.0992,0.1014,0.1042,0.1076,0.1095,0.1123,0.1154,0.1185,0.1204,0.1228,0.1262,0.1276,0.1287,0.1292,0.1297,0.1305,0.1343,0.1353,0.1249,0.1249,0.1249,0,0,0.0853,0.0873,0.0886,0.0929,0.096,0.0992,0.1008,0.1049,0.1081,0.1094,0.1148,0.1176,0.1199,0.1244,0.1266,0.1252,0.1338,0.1301,0.1305,0.1311,0.1348,0.1358,0.1367,0.1251,0.1251,0.1251,0,0,0.0855,0.0883,0.09,0.093,0.098,0.1004,0.1021,0.1072,0.1103,0.1153,0.1176,0.1222,0.1264,0.1292,0.1308,0.1358,0.1368,0.1371,0.1402,0.1439,0.1448,0.1456,0.15,0.1511,0.1372,0.1372,0.1372,0,0.086,0.0888,0.0912,0.0939,0.0968,0.1011,0.1046,0.1078,0.1138,0.1165,0.1176,0.1265,0.1286,0.1343,0.1369,0.1371,0.1397,0.1372,0.1446,0.1454,0.1461,0.1505,0.1517,0.1374,0.1374,0.1374,0.1373,0,0.0874,0.0907,0.092,0.0966,0.0999,0.1035,0.1083,0.1123,0.1164,0.1198,0.1273,0.1313,0.1368,0.1385,0.1395,0.1464,0.1469,0.1449,0.1426,0.1474,0.1517,0.1529,0.1377,0.1376,0.1376,0.1375,0,0,0.0856,0.092,0.0926,0.0963,0.102,0.1052,0.1099,0.1158,0.1202,0.1259,0.1317,0.1385,0.142,0.1443,0.147,0.1505,0.1586,0.1507,0.1508,0.1547,0.1685,0.1567,0.1569,0.1582,0.1584,0.1585,0.1698,0,0.0868,0.0919,0.0948,0.1009,0.1047,0.1094,0.1139,0.1196,0.1245,0.1306,0.1356,0.1431,0.1437,0.149,0.1523,0.158,0.1618,0.1558,0.1637,0.1639,0.1524,0.1578,0.1592,0.1707,0.171,0.1712,0.1713,0,0.0872,0.091,0.097,0.1049,0.1072,0.1117,0.1201,0.125,0.1324,0.1365,0.143,0.1478,0.1568,0.1554,0.1669,0.1636,0.1668,0.1695,0.1699,0.1583,0.1542,0.1647,0.1735,0.1733,0.1731,0.173,0.1729,0,0.0847,0.0923,0.0975,0.1002,0.1094,0.1141,0.1198,0.1275,0.1332,0.142,0.1475,0.1558,0.163,0.1685,0.1748,0.1729,0.1846,0.1822,0.1743,0.1736,0.1792,0.1782,0.1885,0.1885,0.1885,0.1884,0.1884,0,0.0836,0.0881,0.0978,0.1008,0.1091,0.1156,0.1243,0.1302,0.1393,0.1456,0.1525,0.1588,0.1668,0.1737,0.1775,0.1798,0.1874,0.1763,0.1756,0.1806,0.1797,0.1801,0.179,0.1889,0.1888,0.1887,0.1886,0,0.0799,0.0858,0.093,0.104,0.1085,0.1149,0.128,0.1329,0.1428,0.1512,0.1557,0.1648,0.1734,0.1791,0.1878,0.183,0.1867,0.1847,0.1917,0.191,0.1731,0.1721,0.1789,0.1786,0.1784,0.1781,0.1779,0,0.0784,0.0818,0.0946,0.1003,0.1063,0.1166,0.1228,0.1337,0.1384,0.1538,0.1566,0.1684,0.1729,0.1767,0.182,0.187,0.1838,0.1843,0.1768,0.1735,0.1722,0.1716,0.171,0.1775,0.1774,0.1773,0.1773,0,0.0759,0.0812,0.0871,0.0988,0.1071,0.1147,0.1244,0.1277,0.139,0.149,0.1555,0.1602,0.1668,0.1708,0.1739,0.177,0.1835,0.1814,0.182,0.1749,0.1718,0.1707,0.1704,0.1763,0.1765,0.1766,0.1766,0,0.0741,0.0778,0.0868,0.0967,0.1059,0.111,0.1165,0.1228,0.1296,0.1444,0.1461,0.1573,0.1655,0.1658,0.1701,0.1705,0.1684,0.1628,0.1643,0.1654,0.155,0.1487,0.1469,0,0,0,0,0,0.0717,0.0759,0.0845,0.0938,0.1018,0.1072,0.1166,0.121,0.131,0.1325,0.1394,0.1453,0.1505,0.156,0.1539,0.1641,0.1687,0.1608,0.1629,0.1711,0.1722,0.1607,0,0,0,0,0,0,0.0703,0.0774,0.0823,0.0891,0.0938,0.1011,0.1061,0.1127,0.114,0.1248,0.1285,0.1368,0.1438,0.1505,0.1512,0.1527,0.1513,0.1675,0.1672,0.1704,0.1714,0.1723,0.1609,0,0,0,0,0]},{"header":{"parameterUnit":"m.s-1","parameterCategory":2,"la1":30.2991,"la2":30.254,"lo1":-89.0895,"lo2":-89.0444,"dy":0.0017,"dx":0.0017,"nx":28,"ny":28,"refTime":"2025-09-11T09:00:00:Z","depth":"4","parameterNumber":3,"parameterNumberName":"V-component_of_CURRENTS"},"data":[0,0,0,0,0,0,0,0,0,0,0,0,0,0,0,0,0,0,0,0,0,0,0,0,0,0,0,0,0,0,0,0,0,0,0,0,0,0,0,0,0,0,0,0,0,0,0,0,0,0,0,0,0,0,0,0,0,0,0.0334,0.0334,0,0.0308,0.0308,0.0307,0.0291,0.0291,0.0291,0.0291,0.024,0.0238,0.0237,0,0,0,0,0,0,0,0,0,0,0,0,0,0.0349,0.0349,0.0334,0.0334,0.0334,0.0308,0.0308,0.0307,0.0291,0.0291,0.0291,0.0291,0.024,0.0239,0.0237,0,0,0,0,0,0,0,0,0,0,0,0,0,0.0333,0.0348,0.0334,0.0323,0.0322,0.0308,0.0308,0.0307,0.0291,0.0291,0.0291,0.0291,0.0241,0.0239,0.0237,0.0223,0,0,0.023,0.0229,0,0,0,0,0,0,0,0,0.0334,0.0333,0.0325,0.0324,0.0323,0.0304,0.0294,0.0278,0.0291,0.0301,0.0291,0.0291,0.026,0.0256,0.025,0.0221,0.0218,0.023,0.0229,0.0228,0.0227,0,0,0,0,0,0,0,0.0335,0.0334,0.0322,0.0325,0.0323,0.0313,0.0311,0.0291,0.0279,0.03,0.0299,0.0299,0.0259,0.0252,0.0248,0.0218,0.023,0.0228,0.0227,0.0226,0.0189,0.0189,0,0,0,0,0,0,0.0342,0.0335,0.0323,0.0322,0.033,0.0313,0.031,0.0309,0.028,0.0276,0.0299,0.0298,0.0255,0.0251,0.0246,0.0252,0.0228,0.0226,0.0225,0.0189,0.0189,0.0189,0,0,0,0,0,0,0.0343,0.0341,0.0324,0.0329,0.0326,0.0313,0.0311,0.0308,0.0307,0.0279,0.0275,0.0301,0.0255,0.0249,0.0236,0.0249,0.0225,0.0223,0.0188,0.0189,0.0189,0.0248,0,0,0,0,0,0,0.0343,0.0342,0.0344,0.0329,0.0326,0.0321,0.0311,0.0308,0.0307,0.0306,0.0279,0.0274,0.0255,0.024,0.0234,0.0246,0.0222,0.0188,0.0188,0.0189,0.0246,0.0251,0.0255,0,0,0,0,0,0.0344,0.0346,0.0344,0.0343,0.0329,0.0322,0.0319,0.0309,0.0307,0.0307,0.0292,0.0275,0.0239,0.0238,0.0232,0.0243,0.0188,0.0188,0.0189,0.0244,0.025,0.0255,0,0,0,0,0,0,0.0351,0.0344,0.0342,0.0341,0.0336,0.032,0.032,0.0314,0.0302,0.0303,0.0278,0.0271,0.0263,0.0243,0.0244,0.0233,0.0211,0.021,0.0255,0.026,0.0264,0.0284,0.022,0,0,0,0,0,0.0355,0.0357,0.0347,0.0348,0.0347,0.0336,0.0333,0.0327,0.0315,0.031,0.0294,0.0275,0.0259,0.0253,0.0232,0.0228,0.0202,0.023,0.0234,0.0238,0.0249,0.0227,0.023,0.0191,0.0191,0.0191,0,0,0.0358,0.0355,0.0356,0.035,0.0345,0.0347,0.0334,0.0333,0.0339,0.0306,0.0308,0.0287,0.026,0.0255,0.025,0.0242,0.0232,0.0239,0.0243,0.0252,0.0228,0.0232,0.0235,0.0191,0.0191,0.0191,0,0,0.0365,0.0364,0.0368,0.0367,0.0364,0.0359,0.0362,0.0353,0.0353,0.0351,0.033,0.0323,0.0296,0.0286,0.0275,0.029,0.0252,0.028,0.0323,0.0301,0.0304,0.0307,0.0263,0.0262,0.0286,0.0286,0.0287,0,0.0371,0.0372,0.0368,0.0373,0.0374,0.0368,0.0373,0.0375,0.0364,0.0371,0.0359,0.0337,0.0313,0.0315,0.0322,0.0302,0.0274,0.0307,0.0307,0.031,0.0311,0.0267,0.0264,0.0289,0.0289,0.0289,0.0288,0,0.0381,0.0383,0.0387,0.0392,0.0394,0.0397,0.0401,0.041,0.041,0.0412,0.0416,0.039,0.0378,0.037,0.0352,0.0357,0.0326,0.0313,0.0298,0.0319,0.027,0.0266,0.0294,0.0293,0.0292,0.0291,0,0,0.0387,0.0392,0.0394,0.0398,0.0404,0.0405,0.0427,0.0441,0.0458,0.0458,0.0471,0.046,0.0452,0.044,0.0417,0.0407,0.0388,0.0372,0.037,0.0336,0.0322,0.0249,0.0237,0.0375,0.0375,0.0375,0.0278,0,0.0394,0.0402,0.0406,0.0419,0.0421,0.0432,0.0449,0.0466,0.0478,0.049,0.0489,0.0484,0.0477,0.0466,0.0461,0.0402,0.0384,0.0415,0.0301,0.0298,0.0236,0.0233,0.0376,0.0275,0.0274,0.0273,0.0273,0,0.0399,0.0404,0.0413,0.0426,0.043,0.0442,0.0471,0.0485,0.0513,0.0522,0.0539,0.0528,0.0522,0.0502,0.0443,0.0461,0.0402,0.0359,0.0354,0.0266,0.0218,0.0251,0.0265,0.0266,0.0266,0.0267,0.0267,0,0.0392,0.0407,0.0414,0.0419,0.0436,0.0452,0.0466,0.0497,0.0518,0.054,0.0545,0.0548,0.052,0.0483,0.04,0.042,0.031,0.032,0.02,0.0192,0.0263,0.0261,0.0274,0.0274,0.0275,0.0275,0.0275,0,0.0388,0.0396,0.0413,0.0417,0.0441,0.0449,0.0483,0.0503,0.0529,0.0555,0.0556,0.0555,0.0513,0.045,0.0396,0.0273,0.0302,0.0203,0.0166,0.0287,0.0289,0.0259,0.0258,0.0271,0.0272,0.0273,0.0273,0,0.0376,0.0384,0.0398,0.0422,0.0437,0.0453,0.0498,0.0526,0.0536,0.0565,0.0568,0.0543,0.0454,0.0385,0.0285,0.0236,0.0144,0.0087,0.0196,0.0166,0.0046,0.005,-0.0033,-0.0036,-0.0039,-0.0042,-0.0044,0,0.037,0.0371,0.0407,0.0429,0.0444,0.0477,0.0508,0.0535,0.0566,0.056,0.057,0.0482,0.0455,0.0263,0.0182,0.0045,0.0028,-0.0023,0.0052,0.0044,0.0016,0.0024,0.0032,-0.0048,-0.0049,-0.005,-0.005,0,0.0361,0.0373,0.039,0.0437,0.0473,0.0518,0.0561,0.0582,0.0608,0.0607,0.0573,0.0485,0.0355,0.0241,0.0097,0.0016,0.0022,-0.0052,-0.0045,0.0025,0.0025,0.0002,0.0012,-0.006,-0.0059,-0.0058,-0.0057,0,0.0364,0.0374,0.0401,0.0445,0.0498,0.0553,0.0574,0.0601,0.0621,0.0617,0.0593,0.0475,0.0407,0.0219,0.0107,-0.0008,-0.001,-0.0007,-0.0002,0.0007,0.0049,0.0057,-0.0053,0,0,0,0,0,0.0363,0.0373,0.0412,0.0464,0.0522,0.0561,0.0612,0.0629,0.0645,0.0629,0.0618,0.0508,0.0318,0.0232,0.0107,0.0053,-0.0038,-0.0099,-0.0033,-0.0114,-0.0103,-0.0067,0,0,0,0,0,0,0.036,0.0387,0.0405,0.0479,0.0527,0.0595,0.0635,0.0647,0.064,0.0632,0.0533,0.048,0.0292,0.0392,0.0107,0.0067,0.0093,-0.019,-0.0193,-0.0121,-0.011,-0.0101,-0.0061,0,0,0,0,0]}]]